Zurück zum Katalog

RESOURCESAT 2A

AktivWissenschaftSSO
NORAD 41877·PAYLOAD·🇮🇳 India

Gestartet Dec 7, 2016 von Satish Dhawan Space Centre

Loading…

Nächste Überflüge (nächste 24 Stunden)

TLE

AktuellSource: Space-Track

Epoche: Sep 14, 2026, 14:19 UTC

1 41877U 16074A   26257.59714451  .00000199  00000-0  11067-3 0  9990
2 41877  98.7463 330.3395 0002423 154.0903 206.0396 14.21613474507006

Verfolge RESOURCESAT 2A in Echtzeit mit AllMySat

Download on the App Store